Regional Weather Roundup
Issued by NWS

Home | Current Version | Previous Version | Text Only | Print | Product List | Glossary Off
Versions: 1 2 3 4 5 6 7 8 9 10 11 12 13 14 15 16 17 18 19 20 21 22 23 24 25 26 27 28 29 30 31 32 33 34 35 36 37 38 39 40 41 42 43 44 45 46 47 48 49 50

173
ASUS43 KLOT 221612
RWRIL

ILLINOIS REGIONAL WEATHER ROUNDUP
NATIONAL WEATHER SERVICE CHICAGO/ROMEOVILLE IL
1100 AM CDT FRI MAY 22 2015

NOTE: "FAIR" INDICATES FEW OR NO CLOUDS BELOW 12,000 FEET WITH NO
SIGNIFICANT WEATHER AND/OR OBSTRUCTIONS TO VISIBILITY.

* THESE STATIONS ARE NOT UNDER NWS QUALITY CONTROL. THEY ALSO MAY NOT
  REPORT WEATHER SUCH AS PRECIPITATION OR FOG.

ILZ001-002-007-009-015-016-024-221700-
NORTHWEST ILLINOIS

CITY           SKY/WX    TMP DP  RH WIND       PRES   REMARKS
MOLINE         SUNNY     70  43  37 W5        30.20R
STERLING*      SUNNY     70  46  43 NE5       30.21R
SAVANNA*       SUNNY     67  42  40 SE5       30.21S
$$

ILZ003-004-008-010-011-017-018-221700-
NORTH CENTRAL ILLINOIS

CITY           SKY/WX    TMP DP  RH WIND       PRES   REMARKS
ROCKFORD       MOSUNNY   66  40  38 NE6       30.24R
FREEPORT*      SUNNY     64  41  43 E5        30.24R
ROCHELLE*      SUNNY     67  40  38 E6        30.22R
DE KALB*       SUNNY     64  41  42 E5        30.23R
PERU*          SUNNY     69  43  40 E3        30.21R
$$

ILZ005-006-012>014-019>023-221700-
NORTHEAST ILLINOIS

CITY           SKY/WX    TMP DP  RH WIND       PRES   REMARKS
CHICAGO-OHARE  MOSUNNY   61  32  33 NE10      30.22R
CHICAGO-MIDWAY MOSUNNY   63  42  46 E8        30.22R
AURORA         SUNNY     68  41  37 E7        30.22R
LANSING*       SUNNY     61  45  56 NE9       30.22R
JOLIET*        SUNNY     69  47  46 NE5       30.21R
WAUKEGAN       SUNNY     55  32  41 N7        30.24R
DUPAGE AIRPORT SUNNY     64  37  36 E8        30.22R
KANKAKEE*      SUNNY     69  48  47 NE10      30.20R
WHEELING       SUNNY     58  33  39 NE10      30.25R
MORRIS*        SUNNY     70  42  35 NE3       30.19R
ROMEOVILLE*    SUNNY     66  41  40 NE5       30.21S
NORTHERLY ISL    N/A     53  40  61 N13         N/A
$$

LMZ740>746-221700-
SOUTHERN LAKE MICHIGAN

STATION/POSITION SKY/WX   TEMP    WIND        PRES    VSBY  WAVE
                          AIR SEA DIR/SP/G                  HT/PER
                          (F)     (DEG/KT/KT) (MB)    (MI)  (FT/S)
SOUTHERN BUOY              40 38  350/  6/  6 1024.8          1
HARRISON CRIB              47      10/ 12/ 13   N/A
BURNHAM HARBOR             53     360/  9/ 12   N/A
CALUMET HARBOR             51     340/  8/ 12   N/A
BURNS HARBOR               49     340/  5/  8 1023.4R
MICHIGAN CITY              52     360/ 14/ 16   N/A
MICHIGAN CITY 6N           49 51   20/ 12/ 14   N/A           1/ 2
ST. JOSEPH                 52 53   20/ 12/ 14   N/A           1/ 3
$$

ILZ025>027-034>036-040-047-049-050-058-095>099-221700-
WEST-CENTRAL ILLINOIS

CITY           SKY/WX    TMP DP  RH WIND       PRES   REMARKS
QUINCY         SUNNY     69  48  47 SW6       30.23R
GALESBURG*     SUNNY     72  42  33 CALM      30.21R
MACOMB*        MOSUNNY   72  42  33 W3        30.24R
JACKSONVILLE*  SUNNY     71  46  40 CALM      30.22S
PITTSFIELD*    SUNNY     70  50  49 SW3       30.25R
$$

ILZ028>032-037-038-041>044-048-051>054-059>061-221700-
CENTRAL ILLINOIS

CITY           SKY/WX    TMP DP  RH WIND       PRES   REMARKS
PONTIAC        SUNNY     71  43  35 NE5       30.21R
BLOOMINGTON    SUNNY     71  46  40 VRB5      30.22R
DECATUR        SUNNY     72  50  45 W5        30.21S
PEORIA         SUNNY     73  48  41 CALM      30.20S
LACON*         SUNNY     70  47  43 CALM      30.20R
LINCOLN*       SUNNY     73  47  38 SW3       30.19S
SPRINGFIELD    SUNNY     73  46  38 MISG      30.22R
TAYLORVILLE    SUNNY     66  50  55 CALM      30.22F
$$

ILZ033-039-045-046-055>057-062-063-221700-
EAST-CENTRAL ILLINOIS

CITY           SKY/WX    TMP DP  RH WIND       PRES   REMARKS
CHAMPAIGN      SUNNY     72  47  40 VRB5      30.21R
DANVILLE*      SUNNY     66  49  54 CALM      30.18S
RANTOUL*       SUNNY     71  46  41 NE5       30.20R
MATTOON        SUNNY     69  48  47 VRB5      30.21S
PARIS*         SUNNY     71  47  42 W5        30.21S
$$

ILZ079-100>102-221700-
SOUTHWEST ILLINOIS

CITY           SKY/WX    TMP DP  RH WIND       PRES   REMARKS
ALTON          SUNNY     66  50  55 W7        30.26R
BELLEVILLE     MOSUNNY   68  50  53 W7        30.24S
CAHOKIA*       SUNNY     69  48  47 VRB6      30.25S
SPARTA*        SUNNY     66  51  57 CALM      30.27S
$$

ILZ064>066-069>071-074>076-080>082-084>086-088>090-092>094-221700-
SOUTH-CENTRAL ILLINOIS

CITY           SKY/WX    TMP DP  RH WIND       PRES   REMARKS
CARBONDALE     SUNNY     67  48  50 SW8       30.27F
CAIRO*         SUNNY     65  47  52 CALM      30.29F
EFFINGHAM*     SUNNY     67  44  44 CALM      30.25S
MARION         SUNNY     68  50  52 SW9       30.28F
MT. VERNON     SUNNY     66  52  59 SW12      30.26F
CENTRALIA*     SUNNY     71  49  45 W8        30.25F
SALEM*         SUNNY     68  48  49 W7        30.25F
METROPOLIS*    SUNNY     66  47  50 CALM      30.29F
$$

ILZ067-068-072-073-078-083-087-091-221700-
SOUTHEAST ILLINOIS

CITY           SKY/WX    TMP DP  RH WIND       PRES   REMARKS
LAWRENCEVILLE  SUNNY     66  49  54 W8        30.25S
FLORA*         SUNNY     67  50  55 SW10      30.25S
FAIRFIELD*     SUNNY     67  51  56 SW7       30.25S
HARRISBURG*    SUNNY     67  49  51 SW9       30.28F
ROBINSON*      SUNNY     65  48  54 SW10      30.25R
CARMI*         SUNNY     69  43  38 SW13G20   30.27S
$$

ABBREVIATIONS USED IN REMARKS
   TC - TEMPERATURE IN CELSIUS
  WCI - WIND CHILL INDEX
   HX - HEAT INDEX
  VSB - VISIBILITY
$$




USA.gov is the U.S. government's official web portal to all federal, state and local government web resources and services.